Regional Weather Roundup
Issued by NWS

Home | Current Version | Previous Version | Graphics & Text | Print | Product List | Glossary On
Versions: 1 2 3 4 5 6 7 8 9 10 11 12 13 14 15 16 17 18 19 20 21 22 23 24 25 26 27 28 29 30 31 32 33 34 35 36 37 38 39 40 41 42 43 44 45 46 47 48 49 50
000
ASUS43 KMKX 041821
RWRWI

WISCONSIN REGIONAL WEATHER ROUNDUP
NATIONAL WEATHER SERVICE MILWAUKEE/SULLIVAN WI
100 PM CDT MON MAY 04 2015

NOTE: "FAIR" INDICATES FEW OR NO CLOUDS BELOW 12,000 FEET WITH NO
SIGNIFICANT WEATHER AND/OR OBSTRUCTIONS TO VISIBILITY.

WIZ001-002-006>008-014>016-023>028-041900-
NORTHWEST WISCONSIN

CITY           SKY/WX    TMP DP  RH WIND       PRES   REMARKS
SUPERIOR ARPT  PTSUNNY   64  28  26 N6        30.20R
6HR MIN TEMP:  40; 6HR MAX TEMP:  64;

ASHLAND        MOSUNNY   64  33  31 N10       30.19S
6HR MIN TEMP:  44; 6HR MAX TEMP:  66;

HAYWARD        MOSUNNY   63  24  22 N8        30.19F
6HR MIN TEMP:  40; 6HR MAX TEMP:  64;

SIREN          MOSUNNY   66  27  23 NW6       30.19S
6HR MIN TEMP:  40; 6HR MAX TEMP:  67;

CUMBERLAND     SUNNY     63  28  27 N10G17    30.19S
RICE LAKE      SUNNY     65  27  23 N14       30.20S
6HR MIN TEMP:  49; 6HR MAX TEMP:  65;

CHETEK         SUNNY     65  33  30 NW10      30.18S
6HR MIN TEMP:  48; 6HR MAX TEMP:  65;

LADYSMITH      MOSUNNY   64  29  27 N5        30.19S
6HR MIN TEMP:  49; 6HR MAX TEMP:  64;

EAU CLAIRE     SUNNY     67  31  26 NW8       30.17S
6HR MIN TEMP:  53; 6HR MAX TEMP:  68;

MENOMONIE      SUNNY     67  31  26 N8        30.18S
6HR MIN TEMP:  51; 6HR MAX TEMP:  67;

NEW RICHMOND   MOSUNNY   67  28  23 N8        30.19S
6HR MIN TEMP:  47; 6HR MAX TEMP:  67;

OSCEOLA        MOSUNNY   66  33  28 N12       30.22R
6HR MIN TEMP:  45; 6HR MAX TEMP:  66;

$$

WIZ003>005-009-010-017-018-041900-
NORTH CENTRAL WISCONSIN

CITY           SKY/WX    TMP DP  RH WIND       PRES   REMARKS
MANITOWISH WTR SUNNY     61  31  32 NW7G16    30.18R
6HR MIN TEMP:  47; 6HR MAX TEMP:  61;

ARBOR VITAE    MOSUNNY   62  31  30 N9G16     30.17S
6HR MIN TEMP:  49; 6HR MAX TEMP:  62;

WOODRUFF       MOSUNNY   62  31  30 N9G16     30.17S
6HR MIN TEMP:  49; 6HR MAX TEMP:  62;

RHINELANDER    MOSUNNY   62  33  33 N13G21    30.17S
6HR MIN TEMP:  50; 6HR MAX TEMP:  62;

EAGLE RIVER    MOSUNNY   62  30  29 N9        30.17R
6HR MIN TEMP:  48; 6HR MAX TEMP:  62;

LAND O LAKES   SUNNY     62  30  29 N9G20     30.18R
6HR MIN TEMP:  49; 6HR MAX TEMP:  62;

PHILLIPS       MOSUNNY   61  33  34 N7        30.16F
6HR MIN TEMP:  45; 6HR MAX TEMP:  61;

TOMAHAWK       SUNNY     63  31  29 N8G17     30.17S
6HR MIN TEMP:  46; 6HR MAX TEMP:  63;

MEDFORD        SUNNY     63  33  31 N9        30.16S
6HR MIN TEMP:  49; 6HR MAX TEMP:  64;

MERRILL        SUNNY     64  35  34 NW5       30.15S
6HR MIN TEMP:  50; 6HR MAX TEMP:  65;

$$

WIZ029-030-035-036-043>047-041900-
CENTRAL WISCONSIN

CITY           SKY/WX    TMP DP  RH WIND       PRES   REMARKS
WAUSAU         SUNNY     65  33  30 MISG      30.13S
6HR MIN TEMP:  53; 6HR MAX TEMP:  66;

MOSINEE        SUNNY     64  36  34 W8        30.15S
MARSHFIELD     SUNNY     67  37  33 NW6       30.15S
6HR MIN TEMP:  53; 6HR MAX TEMP:  68;

STEVENS POINT  SUNNY     66  34  29 CALM      30.14S
6HR MIN TEMP:  52; 6HR MAX TEMP:  67; 6HR PCP:  0.06;

WAUPACA        SUNNY     72  37  28 SE6       30.13S
6HR MIN TEMP:  58; 6HR MAX TEMP:  72;

WAUTOMA        SUNNY     71  40  32 W5        30.13S
6HR MIN TEMP:  58; 6HR MAX TEMP:  71;

WISC RAPIDS    SUNNY     69  32  25 VRB7      30.15S
6HR MIN TEMP:  53; 6HR MAX TEMP:  70;

CAMP DOUGLAS   PTSUNNY   70  39  32 N8        30.13S
$$

WIZ011>013-019>022-031-037>040-048>050-041900-
NORTHEAST WISCONSIN

CITY           SKY/WX    TMP DP  RH WIND       PRES   REMARKS
ANTIGO         SUNNY     63  38  39 N8        30.15S
SHAWANO        SUNNY     72  35  25 W7        30.12R
6HR MIN TEMP:  58; 6HR MAX TEMP:  73;

OCONTO         SUNNY     68  42  38 E9        30.11R
6HR MIN TEMP:  57; 6HR MAX TEMP:  70;

STURGEON BAY   SUNNY     66  39  37 N10       30.15R
6HR MIN TEMP:  57; 6HR MAX TEMP:  66;

GREEN BAY      SUNNY     71  40  32 NE6       30.12R
6HR MIN TEMP:  60; 6HR MAX TEMP:  71;

MANITOWOC      SUNNY     69  38  32 NE13      30.13R
6HR MIN TEMP:  59; 6HR MAX TEMP:  69;

APPLETON       SUNNY     68  39  34 N12       30.13R
CLINTONVILLE   SUNNY     70  37  30 N6        30.12S
OSHKOSH        MOSUNNY   68  42  38 E9        30.13R
6HR MIN TEMP:  57; 6HR MAX TEMP:  69;

$$

WIZ032>034-041-042-053>061-041900-
SOUTHWEST WISCONSIN

CITY           SKY/WX    TMP DP  RH WIND       PRES   REMARKS
LA CROSSE      PTSUNNY   72  38  29 VRB7      30.14S
6HR MIN TEMP:  58; 6HR MAX TEMP:  73;

SPARTA         MOSUNNY   70  33  26 N6        30.15S
6HR MIN TEMP:  56; 6HR MAX TEMP:  70;

VIROQUA        PTSUNNY   68  42  39 N7        30.16R
6HR MIN TEMP:  57; 6HR MAX TEMP:  68;

BOSCOBEL       MOSUNNY   75  48  38 VRB7      30.12S
6HR MIN TEMP:  57; 6HR MAX TEMP:  75;

PRAIRIE DU CHI PTSUNNY   69  51  53 CALM      30.12S
6HR MIN TEMP:  56; 6HR MAX TEMP:  69;

PLATTEVILLE    PTSUNNY   69  58  68 N7        30.12F
6HR MIN TEMP:  57; 6HR MAX TEMP:  69;

$$

WIZ056-057-062-063-064-067-068-041900-
SOUTH CENTRAL WISCONSIN

CITY           SKY/WX    TMP DP  RH WIND       PRES   REMARKS
REEDSBURG      MOSUNNY   68  52  57 CALM      30.13S
6HR MIN TEMP:  58; 6HR MAX TEMP:  69;

BARABOO/DELLS  NOT AVBL
LONE ROCK      MOSUNNY   72  51  47 NE7       30.12S
6HR MIN TEMP:  60; 6HR MAX TEMP:  73;

MINERAL POINT  CLOUDY    68  54  60 NW3       30.13S
MADISON        PTSUNNY   72  55  55 NE10G20   30.11S
6HR MIN TEMP:  58; 6HR MAX TEMP:  72;

MIDDLETON      MOSUNNY   72  53  51 N7        30.12S
6HR MIN TEMP:  59; 6HR MAX TEMP:  72;

WATERTOWN      CLOUDY    67  57  70 N3        30.11S
6HR MIN TEMP:  56; 6HR MAX TEMP:  68; 6HR PCP:  0.01;

MONROE         MOSUNNY   68  57  68 CALM      30.12S
JANESVILLE     CLOUDY    70  57  64 NW3       30.11S
$$

WIZ051-052-058>065-066-070>072-041900-
SOUTHEAST WISCONSIN

CITY           SKY/WX    TMP DP  RH WIND       PRES   REMARKS
MILWAUKEE      CLOUDY    65  54  67 NE10      30.12R
6HR MIN TEMP:  60; 6HR MAX TEMP:  68;

WAUKESHA       PTSUNNY   66  55  68 N7        30.13R
MILWAUKEE/TIMM PTSUNNY   68  54  60 N7        30.12R
RACINE         PTSUNNY   68  57  68 E8        30.14R
6HR MIN TEMP:  60; 6HR MAX TEMP:  69;

BURLINGTON     MOSUNNY   69  56  64 W3        30.12R
6HR MIN TEMP:  55; 6HR MAX TEMP:  69;

KENOSHA        CLOUDY    66  58  75 E13       30.12R
6HR MIN TEMP:  59; 6HR MAX TEMP:  72;

FOND DU LAC    MOSUNNY   70  42  36 N8        30.13R
6HR MIN TEMP:  58; 6HR MAX TEMP:  70;

SHEBOYGAN      SUNNY     68  39  34 E12       30.13R
6HR MIN TEMP:  58; 6HR MAX TEMP:  69;

WEST BEND      CLOUDY    64  54  68 E9        30.12R
JUNEAU         FAIR      67  56  67 N6        30.13S
6HR MIN TEMP:  57; 6HR MAX TEMP:  67;

$$

LSZ147-162-041900-
LAKE SUPERIOR

STATION/POSITION TIME  TEMP    WIND        PRES    WAVE
                       AIR SEA DIR/SP/G            HT/PER
                 (UTC) (F)     (DEG/KT/KT) (MB)    (FT/S)
W MID LAKE BUOY  1750   39 36  230/  8/  8 1023.0R   0
DEVILS ISLAND    1800   52     230/  7/  9 1022.9S
PORT WING        1700   55     280/  6/  7 1022.7
SAXON HARBOR     1700   58        CALM     1022.4R
$$

LMZ867-665-643>646-041900-
LAKE MICHIGAN

STATION/POSITION TIME  TEMP    WIND        PRES    WAVE
                       AIR SEA DIR/SP/G            HT/PER
                 (UTC) (F)     (DEG/KT/KT) (MB)    (FT/S)
CHAMBERS ISLAND  1700   56      40/  8/  9 1019.6R



USA.gov is the U.S. government's official web portal to all federal, state and local government web resources and services.